LHX4KK ESGG-EDDM

Flight info

Callsign LHX4KK
Flight time 1h 37m
Altitude 37000
Route TOPLA L996 ERNOV DCT NEDIK/N0430F380 DCT NOBRI/N0431F390 DCT MAG DCT SODRO/N0393F310 T703 LULAR/N0380F300 T105 LANDU LANDU2A
Aircraft A20N/M-SDE2E3FGHIRWXY/LB1

Departure

Time 2026-05-04 16:52
Airport Göteborg Landvetter Airport (ESGG)

Arrival

Time 2026-05-04 18:29
Airport Munich Airport (EDDM)
Time Latitude Longitude Altitude Speed Heading
2026-05-04 16:21 57.66726 12.29280 518 ft 0 kts 116°
2026-05-04 16:44 57.66744 12.29214 518 ft 2 kts 115°
2026-05-04 16:45 57.66754 12.29172 518 ft 2 kts 95°
2026-05-04 16:46 57.66737 12.29112 518 ft 1 kts 26°
2026-05-04 16:46 57.66732 12.29107 518 ft 0 kts 25°
2026-05-04 16:48 57.66764 12.29116 518 ft 4 kts 327°
2026-05-04 16:48 57.66782 12.29065 518 ft 5 kts 298°
2026-05-04 16:49 57.66908 12.29064 515 ft 18 kts 26°
2026-05-04 16:49 57.67172 12.29304 516 ft 22 kts 25°
2026-05-04 16:50 57.67408 12.29468 515 ft 13 kts 311°
2026-05-04 16:50 57.67456 12.29194 509 ft 10 kts 266°
2026-05-04 16:51 57.67409 12.29005 508 ft 0 kts 206°
2026-05-04 16:51 57.66969 12.28602 506 ft 104 kts 205°
2026-05-04 16:52 57.65164 12.26979 1245 ft 160 kts 211°
2026-05-04 16:52 57.64150 12.26074 2004 ft 166 kts 212°
2026-05-04 16:53 57.61994 12.24144 3273 ft 186 kts 212°
2026-05-04 16:53 57.57390 12.22797 4655 ft 265 kts 186°
2026-05-04 16:54 57.55510 12.22734 5311 ft 282 kts 183°
2026-05-04 16:55 57.47218 12.24977 8733 ft 317 kts 175°
2026-05-04 16:55 57.42852 12.26254 10619 ft 321 kts 177°
2026-05-04 16:56 57.38485 12.27342 12519 ft 320 kts 180°
2026-05-04 16:56 57.31873 12.28858 15049 ft 327 kts 179°
2026-05-04 16:57 57.29597 12.29415 15804 ft 331 kts 179°
2026-05-04 16:57 57.25010 12.30563 17231 ft 340 kts 179°
2026-05-04 16:58 57.17894 12.32366 19256 ft 352 kts 179°
2026-05-04 16:58 57.15475 12.32978 19924 ft 355 kts 179°
2026-05-04 16:59 57.10569 12.34220 21246 ft 361 kts 179°
2026-05-04 17:00 57.00446 12.36776 23770 ft 374 kts 178°
2026-05-04 17:00 56.92669 12.38727 25520 ft 384 kts 178°
2026-05-04 17:01 56.87354 12.40058 26617 ft 390 kts 177°
2026-05-04 17:01 56.81974 12.41402 27646 ft 396 kts 177°
2026-05-04 17:02 56.76473 12.42772 28578 ft 403 kts 177°
2026-05-04 17:02 56.70907 12.44153 29429 ft 408 kts 176°
2026-05-04 17:03 56.68092 12.44850 29847 ft 411 kts 176°
2026-05-04 17:03 56.65263 12.45552 30248 ft 413 kts 176°
2026-05-04 17:03 56.59561 12.46961 30967 ft 418 kts 176°
2026-05-04 17:04 56.53798 12.48382 31621 ft 422 kts 176°
2026-05-04 17:04 56.47966 12.49814 32232 ft 427 kts 176°
2026-05-04 17:05 56.42111 12.51247 32826 ft 430 kts 176°
2026-05-04 17:05 56.36191 12.52694 33596 ft 429 kts 176°
2026-05-04 17:06 56.30328 12.54126 34338 ft 427 kts 176°
2026-05-04 17:06 56.27396 12.54838 34686 ft 425 kts 176°
2026-05-04 17:07 56.21587 12.56107 35191 ft 423 kts 179°
2026-05-04 17:07 56.19613 12.56311 35341 ft 422 kts 182°
2026-05-04 17:07 56.15753 12.56288 35572 ft 420 kts 187°
2026-05-04 17:07 56.12822 12.55895 35731 ft 420 kts 190°
2026-05-04 17:08 56.09948 12.55188 35882 ft 419 kts 193°
2026-05-04 17:08 56.04256 12.53375 36218 ft 420 kts 194°
2026-05-04 17:08 56.01397 12.52482 36425 ft 420 kts 194°
2026-05-04 17:09 55.98502 12.51578 36614 ft 422 kts 194°
2026-05-04 17:09 55.95638 12.50684 36811 ft 423 kts 194°
2026-05-04 17:09 55.92722 12.49775 36919 ft 424 kts 194°
2026-05-04 17:10 55.78259 12.45284 36928 ft 424 kts 194°
2026-05-04 17:11 55.72456 12.43492 36928 ft 424 kts 194°
2026-05-04 17:12 55.63763 12.40817 36931 ft 423 kts 194°
2026-05-04 17:13 55.49321 12.36394 36935 ft 430 kts 194°
2026-05-04 17:14 55.37526 12.32812 36936 ft 432 kts 194°
2026-05-04 17:15 55.28639 12.30125 36934 ft 433 kts 194°
2026-05-04 17:16 55.16768 12.26992 36933 ft 436 kts 188°
2026-05-04 17:17 55.04702 12.25798 36937 ft 435 kts 188°
2026-05-04 17:18 54.92709 12.24572 36951 ft 433 kts 188°
2026-05-04 17:19 54.80690 12.23327 36948 ft 434 kts 188°
2026-05-04 17:20 54.68690 12.22089 36951 ft 433 kts 188°
2026-05-04 17:20 54.59737 12.21171 36973 ft 432 kts 188°
2026-05-04 17:21 54.47768 12.19947 36970 ft 432 kts 188°
2026-05-04 17:22 54.41804 12.19344 36972 ft 432 kts 188°
2026-05-04 17:23 54.29840 12.18133 36960 ft 432 kts 189°
2026-05-04 17:24 54.20824 12.17222 36978 ft 433 kts 189°
2026-05-04 17:25 54.08889 12.16029 36973 ft 432 kts 189°
2026-05-04 17:26 53.96889 12.14831 36977 ft 433 kts 189°
2026-05-04 17:27 53.81956 12.13353 36968 ft 431 kts 189°
2026-05-04 17:28 53.70034 12.12182 36973 ft 430 kts 189°
2026-05-04 17:29 53.52217 12.10442 36957 ft 428 kts 189°
2026-05-04 17:31 53.37388 12.09003 36958 ft 426 kts 189°
2026-05-04 17:32 53.22661 12.07588 36942 ft 424 kts 189°
2026-05-04 17:33 53.10930 12.06465 36956 ft 423 kts 189°
2026-05-04 17:34 52.99180 12.05346 36934 ft 423 kts 189°
2026-05-04 17:35 52.84481 12.03955 36954 ft 423 kts 188°
2026-05-04 17:36 52.78635 12.03405 36932 ft 423 kts 188°
2026-05-04 17:36 52.72743 12.02854 36941 ft 423 kts 188°
2026-05-04 17:37 52.66891 12.02304 36940 ft 423 kts 188°
2026-05-04 17:37 52.61013 12.01758 36942 ft 422 kts 188°
2026-05-04 17:38 52.55171 12.01214 36945 ft 422 kts 188°
2026-05-04 17:38 52.49311 12.00671 36936 ft 423 kts 188°
2026-05-04 17:39 52.40520 11.99856 36941 ft 424 kts 188°
2026-05-04 17:39 52.34666 11.99316 36927 ft 424 kts 188°
2026-05-04 17:40 52.28838 11.98779 36933 ft 423 kts 188°
2026-05-04 17:40 52.22944 11.98240 36930 ft 423 kts 188°
2026-05-04 17:41 52.17112 11.97706 36930 ft 422 kts 188°
2026-05-04 17:41 52.11261 11.97172 36926 ft 422 kts 188°
2026-05-04 17:42 52.05418 11.96643 36925 ft 423 kts 188°
2026-05-04 17:42 51.99559 11.96109 36923 ft 424 kts 188°
2026-05-04 17:43 51.93706 11.95579 36923 ft 424 kts 188°
2026-05-04 17:43 51.87816 11.95048 36921 ft 424 kts 188°
2026-05-04 17:44 51.81941 11.94518 36916 ft 423 kts 188°
2026-05-04 17:44 51.76108 11.93995 36916 ft 423 kts 188°
2026-05-04 17:45 51.70244 11.93469 36911 ft 423 kts 187°
2026-05-04 17:45 51.64367 11.92944 36912 ft 423 kts 187°
2026-05-04 17:46 51.58516 11.92422 36913 ft 423 kts 187°
2026-05-04 17:46 51.52669 11.91902 36916 ft 424 kts 187°
2026-05-04 17:47 51.46789 11.91382 36922 ft 424 kts 187°
2026-05-04 17:47 51.40931 11.90865 36929 ft 425 kts 187°
2026-05-04 17:48 51.35032 11.90344 36926 ft 424 kts 187°
2026-05-04 17:48 51.29173 11.89829 36926 ft 424 kts 187°
2026-05-04 17:49 51.23274 11.89314 36927 ft 424 kts 187°
2026-05-04 17:49 51.17399 11.88799 36923 ft 424 kts 187°
2026-05-04 17:50 51.11549 11.88288 36925 ft 424 kts 187°
2026-05-04 17:50 51.05652 11.87777 36929 ft 424 kts 187°
2026-05-04 17:51 50.99793 11.87267 36932 ft 425 kts 187°
2026-05-04 17:51 50.93911 11.86758 36933 ft 425 kts 187°
2026-05-04 17:52 50.87994 11.86248 36931 ft 425 kts 187°
2026-05-04 17:52 50.82108 11.85740 36930 ft 425 kts 187°
2026-05-04 17:53 50.76237 11.85238 36934 ft 425 kts 186°
2026-05-04 17:53 50.70351 11.84735 36929 ft 425 kts 186°
2026-05-04 17:54 50.64467 11.84239 36933 ft 425 kts 187°
2026-05-04 17:54 50.58580 11.83739 36937 ft 426 kts 187°
2026-05-04 17:55 50.52663 11.83430 36942 ft 428 kts 182°
2026-05-04 17:55 50.46707 11.84356 36942 ft 432 kts 174°
2026-05-04 17:56 50.40876 11.86684 36946 ft 436 kts 165°
2026-05-04 17:56 50.35260 11.90251 36949 ft 438 kts 160°
2026-05-04 17:57 50.29665 11.94060 36954 ft 438 kts 160°
2026-05-04 17:57 50.24074 11.97832 36514 ft 441 kts 160°
2026-05-04 17:58 50.21270 11.99715 35911 ft 441 kts 160°
2026-05-04 17:58 50.18480 12.01590 35308 ft 441 kts 160°
2026-05-04 17:58 50.15644 12.03496 34672 ft 441 kts 160°
2026-05-04 17:58 50.12814 12.05395 33947 ft 443 kts 160°
2026-05-04 17:59 50.10015 12.07271 33235 ft 446 kts 160°
2026-05-04 17:59 50.07170 12.09174 32514 ft 448 kts 160°
2026-05-04 17:59 50.01406 12.13012 31077 ft 454 kts 160°
2026-05-04 18:00 49.98514 12.14935 30364 ft 457 kts 160°
2026-05-04 18:00 49.95589 12.16879 29647 ft 458 kts 160°
2026-05-04 18:00 49.92682 12.18809 28939 ft 459 kts 160°
2026-05-04 18:00 49.89768 12.20741 28232 ft 460 kts 159°
2026-05-04 18:01 49.86815 12.22697 27522 ft 461 kts 159°
2026-05-04 18:01 49.83889 12.24631 27047 ft 461 kts 159°
2026-05-04 18:01 49.80928 12.26587 26934 ft 462 kts 159°
2026-05-04 18:02 49.75038 12.30523 26936 ft 463 kts 157°
2026-05-04 18:02 49.72174 12.32850 26935 ft 465 kts 152°
2026-05-04 18:02 49.69463 12.35535 26936 ft 467 kts 147°
2026-05-04 18:02 49.66836 12.38533 26939 ft 467 kts 145°
2026-05-04 18:03 49.64271 12.41540 26941 ft 467 kts 145°
2026-05-04 18:03 49.61682 12.44584 26947 ft 467 kts 145°
2026-05-04 18:03 49.59105 12.47607 26946 ft 467 kts 145°
2026-05-04 18:03 49.56521 12.50624 26513 ft 469 kts 145°
2026-05-04 18:04 49.53936 12.53635 25881 ft 469 kts 145°
2026-05-04 18:04 49.51346 12.56644 25344 ft 467 kts 145°
2026-05-04 18:04 49.46212 12.62592 24507 ft 460 kts 145°
2026-05-04 18:05 49.43681 12.65604 24071 ft 455 kts 144°
2026-05-04 18:05 49.41068 12.68201 23328 ft 445 kts 159°
2026-05-04 18:05 49.38113 12.69252 22535 ft 435 kts 181°
2026-05-04 18:05 49.35213 12.68604 21824 ft 424 kts 200°
2026-05-04 18:06 49.29857 12.65193 20585 ft 415 kts 204°
2026-05-04 18:06 49.27198 12.63565 20056 ft 412 kts 203°
2026-05-04 18:06 49.24539 12.62013 19757 ft 410 kts 202°
2026-05-04 18:07 49.21869 12.60503 19504 ft 408 kts 202°
2026-05-04 18:07 49.19203 12.59028 19251 ft 407 kts 202°
2026-05-04 18:07 49.16521 12.57563 18997 ft 406 kts 201°
2026-05-04 18:07 49.13867 12.56128 18617 ft 404 kts 201°
2026-05-04 18:08 49.11219 12.54702 18210 ft 402 kts 201°
2026-05-04 18:08 49.08607 12.53300 17778 ft 400 kts 201°
2026-05-04 18:08 49.06014 12.51912 17335 ft 397 kts 201°
2026-05-04 18:08 49.03431 12.50532 16891 ft 394 kts 201°
2026-05-04 18:09 48.98323 12.47809 16002 ft 386 kts 201°
2026-05-04 18:09 48.93294 12.45137 15108 ft 380 kts 201°
2026-05-04 18:10 48.90837 12.43832 14665 ft 376 kts 201°
2026-05-04 18:10 48.88365 12.42522 14171 ft 370 kts 201°
2026-05-04 18:10 48.85964 12.41250 13677 ft 362 kts 200°
2026-05-04 18:10 48.83675 12.40039 13194 ft 356 kts 200°
2026-05-04 18:11 48.81378 12.38827 12701 ft 350 kts 200°
2026-05-04 18:11 48.79102 12.37624 12207 ft 345 kts 200°
2026-05-04 18:11 48.76835 12.36429 11714 ft 337 kts 200°
2026-05-04 18:11 48.74717 12.35314 11223 ft 317 kts 200°
2026-05-04 18:12 48.72680 12.34243 10933 ft 302 kts 199°
2026-05-04 18:12 48.70692 12.33198 10903 ft 300 kts 199°
2026-05-04 18:12 48.68778 12.32193 10898 ft 284 kts 199°
2026-05-04 18:12 48.66924 12.31221 10899 ft 281 kts 199°
2026-05-04 18:13 48.65087 12.30259 10906 ft 280 kts 199°
2026-05-04 18:13 48.63248 12.29296 10908 ft 279 kts 199°
2026-05-04 18:13 48.59990 12.26343 10901 ft 280 kts 236°
2026-05-04 18:14 48.59281 12.23625 10908 ft 282 kts 257°
2026-05-04 18:14 48.59050 12.20766 10902 ft 262 kts 263°
2026-05-04 18:14 48.58946 12.18116 10906 ft 252 kts 264°
2026-05-04 18:15 48.58795 12.12820 10905 ft 251 kts 264°
2026-05-04 18:15 48.58648 12.07568 10904 ft 251 kts 264°
2026-05-04 18:15 48.58575 12.04964 10900 ft 251 kts 264°
2026-05-04 18:16 48.58499 12.02323 10905 ft 251 kts 264°
2026-05-04 18:16 48.58423 11.99686 10910 ft 251 kts 264°
2026-05-04 18:16 48.58344 11.97066 10917 ft 252 kts 264°
2026-05-04 18:17 48.58136 11.91825 10914 ft 249 kts 255°
2026-05-04 18:17 48.57384 11.89501 10915 ft 245 kts 225°
2026-05-04 18:17 48.54296 11.87998 10918 ft 247 kts 168°
2026-05-04 18:18 48.52773 11.89193 10919 ft 254 kts 139°
2026-05-04 18:18 48.51766 11.91367 10927 ft 260 kts 120°
2026-05-04 18:18 48.51037 11.93902 10917 ft 261 kts 115°
2026-05-04 18:18 48.50377 11.96446 10923 ft 261 kts 115°
2026-05-04 18:19 48.49082 12.01542 10857 ft 257 kts 114°
2026-05-04 18:19 48.48439 12.04076 10493 ft 260 kts 114°
2026-05-04 18:19 48.47794 12.06600 10021 ft 259 kts 114°
2026-05-04 18:20 48.47152 12.09106 9557 ft 255 kts 114°
2026-05-04 18:20 48.46509 12.11579 9093 ft 251 kts 113°
2026-05-04 18:20 48.46153 12.14124 8608 ft 253 kts 92°
2026-05-04 18:20 48.46261 12.16747 8157 ft 252 kts 85°
2026-05-04 18:21 48.46459 12.19362 7694 ft 249 kts 84°
2026-05-04 18:21 48.46664 12.21914 7282 ft 249 kts 84°
2026-05-04 18:21 48.46868 12.24523 6892 ft 249 kts 84°
2026-05-04 18:21 48.47055 12.27115 6515 ft 249 kts 87°
2026-05-04 18:22 48.46825 12.29622 6149 ft 247 kts 114°
2026-05-04 18:22 48.45765 12.31610 5926 ft 241 kts 145°
2026-05-04 18:22 48.44230 12.32461 5640 ft 241 kts 175°
2026-05-04 18:22 48.42599 12.31994 5276 ft 244 kts 207°
2026-05-04 18:23 48.41340 12.30305 4916 ft 245 kts 235°
2026-05-04 18:23 48.40501 12.28119 4589 ft 244 kts 245°
2026-05-04 18:23 48.39952 12.25682 4251 ft 243 kts 258°
2026-05-04 18:23 48.39729 12.23211 4003 ft 240 kts 267°
2026-05-04 18:24 48.39633 12.20674 3980 ft 242 kts 268°
2026-05-04 18:24 48.39518 12.18152 3975 ft 242 kts 266°
2026-05-04 18:24 48.39363 12.15658 3973 ft 243 kts 265°
2026-05-04 18:24 48.39174 12.13128 3973 ft 243 kts 264°
2026-05-04 18:25 48.38968 12.10604 3975 ft 243 kts 264°
2026-05-04 18:25 48.38759 12.08102 3969 ft 242 kts 264°
2026-05-04 18:25 48.38547 12.05566 3975 ft 242 kts 264°
2026-05-04 18:25 48.38342 12.03078 3967 ft 242 kts 264°
2026-05-04 18:26 48.38138 12.00570 3791 ft 240 kts 265°
2026-05-04 18:26 48.37940 11.98108 3477 ft 230 kts 265°
2026-05-04 18:26 48.37754 11.95784 3180 ft 218 kts 266°
2026-05-04 18:26 48.37584 11.93659 2979 ft 193 kts 266°
2026-05-04 18:27 48.37433 11.91725 2745 ft 185 kts 266°
2026-05-04 18:27 48.37290 11.89875 2462 ft 174 kts 264°
2026-05-04 18:27 48.37138 11.88129 2234 ft 160 kts 265°
2026-05-04 18:27 48.37023 11.86495 2049 ft 156 kts 265°
2026-05-04 18:28 48.36907 11.84902 1863 ft 151 kts 264°
2026-05-04 18:28 48.36785 11.83361 1653 ft 146 kts 264°
2026-05-04 18:28 48.36670 11.81891 1472 ft 139 kts 264°
2026-05-04 18:28 48.36573 11.80599 1462 ft 100 kts 263°
2026-05-04 18:29 48.36515 11.79846 1466 ft 56 kts 264°
2026-05-04 18:29 48.36472 11.79289 1469 ft 44 kts 264°
2026-05-04 18:29 48.36421 11.78980 1471 ft 27 kts 246°
2026-05-04 18:29 48.36332 11.78769 1473 ft 18 kts 234°
2026-05-04 18:30 48.36217 11.78535 1474 ft 2 kts 232°
2026-05-04 18:30 48.36213 11.78528 1474 ft 0 kts 228°
2026-05-04 18:32 48.36212 11.78526 1474 ft 1 kts 228°
2026-05-04 18:33 48.36192 11.78501 1474 ft 6 kts 212°
2026-05-04 18:33 48.36137 11.78480 1475 ft 10 kts 181°
2026-05-04 18:33 48.36052 11.78495 1475 ft 14 kts 157°
2026-05-04 18:33 48.36041 11.78647 1475 ft 17 kts 83°
2026-05-04 18:34 48.36056 11.78850 1474 ft 21 kts 84°
2026-05-04 18:34 48.36075 11.79086 1473 ft 18 kts 83°
2026-05-04 18:34 48.36088 11.79256 1472 ft 9 kts 86°
2026-05-04 18:34 48.36028 11.79326 1472 ft 14 kts 174°
2026-05-04 18:35 48.35977 11.79336 1472 ft 2 kts 173°
2026-05-04 18:35 48.35975 11.79336 1472 ft 0 kts 173°
2026-05-04 18:37 48.35958 11.79339 1472 ft 4 kts 173°
2026-05-04 18:38 48.35957 11.79339 1472 ft 0 kts 173°
2026-05-04 18:39 48.35956 11.79339 1472 ft 0 kts 173°
2026-05-04 18:39 48.35879 11.79351 1473 ft 25 kts 176°
2026-05-04 18:40 48.35770 11.79410 1474 ft 8 kts 179°
2026-05-04 18:40 48.35751 11.79410 1474 ft 0 kts 178°
2026-05-04 18:41 48.35742 11.79410 1474 ft 3 kts 179°
2026-05-04 18:41 48.35676 11.79416 1475 ft 14 kts 175°
2026-05-04 18:41 48.35565 11.79435 1475 ft 17 kts 173°
2026-05-04 18:41 48.35468 11.79476 1476 ft 13 kts 131°
2026-05-04 18:42 48.35405 11.79591 1475 ft 12 kts 147°
2026-05-04 18:42 48.35325 11.79612 1476 ft 11 kts 174°
2026-05-04 18:42 48.35245 11.79626 1476 ft 10 kts 173°
2026-05-04 18:42 48.35202 11.79633 1476 ft 5 kts 173°
2026-05-04 18:43 48.35180 11.79637 1476 ft 0 kts 173°
2026-05-04 18:43 48.35167 11.79639 1476 ft 4 kts 173°
2026-05-04 18:43 48.35108 11.79667 1476 ft 7 kts 128°
2026-05-04 18:44 48.35106 11.79771 1476 ft 12 kts 83°
2026-05-04 18:44 48.35113 11.79853 1476 ft 12 kts 77°
2026-05-04 18:44 48.35155 11.80004 1475 ft 10 kts 86°
2026-05-04 18:44 48.35159 11.80071 1475 ft 3 kts 84°
2026-05-04 18:45 48.35159 11.80075 1475 ft 0 kts 84°
2026-05-04 18:45 48.35160 11.80090 1475 ft 6 kts 83°
2026-05-04 18:45 48.35191 11.80156 1475 ft 9 kts 359°
2026-05-04 18:45 48.35247 11.80147 1475 ft 8 kts 354°
2026-05-04 18:46 48.35300 11.80138 1474 ft 7 kts 354°
2026-05-04 18:46 48.35326 11.80177 1474 ft 8 kts 82°
2026-05-04 18:46 48.35331 11.80230 1474 ft 3 kts 84°
2026-05-04 18:46 48.35334 11.80276 1474 ft 4 kts 84°
2026-05-04 18:47 48.35335 11.80287 1474 ft 1 kts 82°